Regional Weather Roundup
Issued by NWS San Diego, CA

Home | Current Version | Previous Version | Text Only | Print | Product List | Glossary On
Versions: 1 2 3 4 5 6 7 8 9 10 11 12 13 14 15 16 17 18 19 20 21 22 23 24 25 26 27 28 29 30 31 32 33 34 35 36 37 38 39 40 41 42 43 44 45 46 47 48 49 50
000
ASUS46 KSGX 211510
RWRSGX

SAN DIEGO HOURLY WEATHER ROUNDUP
NATIONAL WEATHER SERVICE SAN DIEGO CA
800 AM PDT THU AUG 21 2014

NOTE: "FAIR" INDICATES FEW OR NO CLOUDS BELOW 12,000 FEET WITH NO
SIGNIFICANT WEATHER AND/OR OBSTRUCTIONS TO VISIBILITY.

CAZ042-043-060-061-PZZ750-775-211600-

GREATER SAN DIEGO AREA

CITY           SKY/WX    TMP DP  RH WIND       PRES   REMARKS
LINDBERGH FLD  PTSUNNY   72  63  73 NW8       29.95R
POINT LOMA       N/A     70  64  82 NW10        N/A
NATIONAL CITY    N/A     71  65  80 NE1       29.95R
CHULA VISTA      N/A     71  65  82 CALM      29.87R
IMPERIAL BEACH PTSUNNY   71  65  81 NW7       29.94R
BROWN FIELD    CLOUDY    69  62  78 CALM      29.95R
MIRAMAR MCAS   CLOUDY    70  62  76 NW5       29.95R
MONTGOMERY FLD CLOUDY    71  63  75 VRB3      29.95R

$$

NORTH SAN DIEGO COUNTY

CITY           SKY/WX    TMP DP  RH WIND       PRES   REMARKS
CAMP PENDLETON PTSUNNY   66  62  87 CALM      29.94S
OCEANSIDE AP   CLOUDY    69  62  78 NE3       29.93R
VISTA            N/A     66  62  86 CALM      29.92R
CARLSBAD       CLOUDY    69  62  78 CALM      29.94R
DEL MAR          N/A     69  65  86 CALM      29.96R
LA JOLLA SCRIP   N/A     69  65  86 N3        29.92R
FALLBROOK        N/A     64  64 100 CALM      29.95S
ESCONDIDO        N/A     66  63  89 CALM      29.96R
SAN MARCOS       N/A     66  62  86 CALM      29.92R
POWAY            N/A     67  62  85 CALM      29.95R
R. PENASQUITOS   N/A     69  64  85 CALM      29.94R

$$

EAST SAN DIEGO COUNTY

CITY           SKY/WX    TMP DP  RH WIND       PRES   REMARKS
RAMONA         MOSUNNY   61  60  97 CALM      29.97R
GILLESPIE FLD  CLOUDY    68  61  77 N6        29.97R
LA MESA          N/A     68  64  86 CALM      29.88R
JAMUL            N/A     64  62  92 CALM      29.93R
DESCANSO N       N/A     70  52  52 CALM      29.80S
MT. LAGUNA OBS   N/A     65  44  46 SE2       29.73S
CAMPO            N/A     68  53  58 NE3       29.96S

$$

ORANGE COUNTY AND THE LOS ANGELES BASIN

CITY           SKY/WX    TMP DP  RH WIND       PRES   REMARKS
JOHN WAYNE AP  PTSUNNY   71  61  70 CALM      29.94R
LAGUNA BEACH     N/A     69  63  80 CALM      29.90R
LAKE FOREST FR   N/A     64  59  83 CALM      29.86R
SANTA ANA        N/A     67  64  89 CALM      29.89S
HUNTINGTON BCH   N/A     68  64  87 CALM      29.96R
LOS ALAMITOS   MOSUNNY   70  63  78 NW3       29.95R
FULLERTON      SUNNY     70  61  73 VRB3      29.94R
LONG BEACH     CLOUDY    70  62  76 NW5       29.94S
L.A. AP        PTSUNNY   68  61  78 SW5       29.95R
L.A. DOWNTOWN  SUNNY     69  60  73 W3        29.94R

$$

THE INLAND EMPIRE

CITY           SKY/WX    TMP DP  RH WIND       PRES   REMARKS
CHINO          SUNNY     68  61  78 CALM      29.96R
ONTARIO        MOSUNNY   68  60  75 SW5       29.95R
RIVERSIDE AP   SUNNY     67  62  84 CALM      29.96R
RIV CYN CREST    N/A     65  65 100 CALM      29.93S
MORENO VALLEY    N/A     64  64  98 CALM      29.15R
MARCH ARB      SUNNY     65  64  94 NW2       29.97R
HORSETHIEF CYN   N/A     65  59  80 CALM      29.95S
PERRIS           N/A     63  62  96 CALM      29.95S
MENIFEE          N/A     65  63  95 CALM      30.03R
HEMET EAST       N/A     64  57  78 CALM      29.94R
FRENCH VALLEY  FAIR      66  61  82 CALM      29.97R
TEMECULA         N/A     63  61  96 CALM      29.94R

$$

SAN BERNARDINO AND RIVERSIDE COUNTY MOUNTAINS

CITY           SKY/WX    TMP DP  RH WIND       PRES   REMARKS
BIG BEAR AP    SUNNY     52  43  71 CALM      30.22S
BIG BEAR SHEA    N/A     50  39  67 CALM      30.00F
ANGELUS OAKS     N/A     56  45  67 CALM      29.86R
PINE COVE        N/A     62  48  60 CALM      29.83R

$$

SOUTHERN DESERT INCLUDING THE COACHELLA VALLEY

CITY           SKY/WX    TMP DP  RH WIND       PRES   REMARKS
PALM SPRINGS   MOSUNNY   81  57  43 W3        29.87R
THOUSAND PALMS   N/A     83  53  35 W6        29.82R
PALM DESERT      N/A     80  60  50 CALM      29.74
THERMAL        SUNNY     83  57  41 NW7       29.81R
BLYTHE         SUNNY     83  68  60 E6        29.86R
IMPERIAL AP    SUNNY     81  62  52 NW3       29.83R
EL CENTRO NAS  MOSUNNY   84  54  35 CALM      29.83R
YUMA AZ        PTSUNNY   87  62  43 NE6       29.84R
MEXICALI       MOSUNNY   84  64  51 E6        29.84

$$

UPPER DESERT

CITY           SKY/WX    TMP DP  RH WIND       PRES   REMARKS
VICTORVILLE AP MOSUNNY   70  52  52 SE6       30.02R
HESPERIA         N/A     66  54  65 CALM      30.03R
APPLE VALLEY     N/A     66  52  60 CALM      30.09S
GRAY BUTTE AP  FAIR      71  45  40 VRB3      30.02R
PALMDALE       SUNNY     71  51  49 CALM      30.01R
LANCASTER      SUNNY     68  46  45 CALM      30.00R
EDWARDS AFB    MOSUNNY   69  47  44 SW5       29.98R
DAGGETT        MOSUNNY   75  49  39 W13       29.97R
29 PALMS N     SUNNY     74  48  39 NW7       30.03R
NEEDLES        MOSUNNY   86  53  32 CALM      29.90R THUNDER

$$

REGIONAL REPORTS

CITY           SKY/WX    TMP DP  RH WIND       PRES   REMARKS
SANTA BARBARA  SUNNY     66  58  75 CALM      29.95R
SANDBERG       SUNNY     70  44  39 NW7       30.10R
MT. WILSON       N/A     64  50  59 E3          N/A
LAS VEGAS NV   MOSUNNY   78  48  34 S9        29.94R
PHOENIX AZ     CLOUDY    84  61  45 E6        29.91R
TIJUANA        PTSUNNY   68  59  73 N6        29.97R
ENSENADA NW      N/A     72  32  23 S1        29.91R

$$

OFFSHORE ISLANDS

CITY           SKY/WX    TMP DP  RH WIND       PRES   REMARKS
CATALINA ARPT  CLOUDY    60  58  92 CALM      29.98R
SAN NICOLAS IS PTSUNNY   65  57  75 W3        29.96R

$$

MARINE AND OFFSHORE BUOY REPORTS

STATION/POSITION SKY/WX   TEMP    WIND        PRES    SWELL
                          AIR SEA DIR/SP/G            HT/PER/DIR
                          (F)     (DEG/KT/KT) (MB)    (FT/S/D)
TANNER BANKS               66 68  340/  6/  8 1014.4R   5/180/11
S CLEMENTE BASIN           67 70  290/ 10/ 12 1014.0R   5/190/12
SAN NICOLAS IS.               65                N/A     3/180/12
SO. S. ROSA ISLA           64 66  310/ 12/ 14 1013.9R   3/12
W. S. BARBARA CH           62 62  320/ 10/ 14 1013.5R   3/310/ 8
M. S. BARBARA CH           62 63  230/  4/  4 1013.7
S. MONICA BASIN            67 72  250/  2/  4 1013.7R   3/170/11
S PEDRO CHANNEL               69                N/A     2/170/11
DANA POINT                    71                N/A     3/190/11
CMP PENDLETON NS              73                N/A     3/210/12
OCEANSIDE OFFSHR              72                N/A     2/190/11
TORREY PINES OTR              73                N/A     2/210/14
LA JOLLA 1                 71 71  360/  7/  9 1013.8R
MISSION BAY BUOY              69                N/A     3/180/11
SAN DIEGO BAY                 73              1014.2R
POINT LOMA SOUTH              73                N/A     3/180/11

$$



USA.gov is the U.S. government's official web portal to all federal, state and local government web resources and services.